When you browse on this site, cookies collect data to enhance your experience and personalize the content and advertising you see.
Visit our Privacy Policy to learn more. By continuing to use the site, you agree to this use of cookies and data.
  • In Lithuania
  • List of Countries
  • For 7 days
  • Water Temperature
  • Satellite Maps
  • Weather Map
  • Weather Widgets
  • user-avatar
    Login

    Hourly Weather Krivozere

    Today, 22 March, Friday

    Time Temperature Precipitation Wind Pressure Humidity
    00:00 -3°C° 0 mm 2 mps 748 mmHg 93%
    01:00 -3°C° 0 mm 2 mps 748 mmHg 93%
    02:00 -3°C° 0 mm 2 mps 748 mmHg 93%
    03:00 -4°C° 0 mm 2 mps 748 mmHg 93%
    04:00 -4°C° 0 mm 2 mps 747 mmHg 93%
    05:00 -5°C° 0 mm 2 mps 747 mmHg 92%
    06:00 -6°C° 0 mm 3 mps 746 mmHg 92%
    07:00 -4°C° 0 mm 3 mps 745 mmHg 91%
    08:00 -3°C° 0 mm 4 mps 745 mmHg 90%
    09:00 -2°C° 0 mm 5 mps 744 mmHg 88%
    10:00 -2°C° 0.4 mm 6 mps 743 mmHg 91%
    11:00 -2°C° 0.4 mm 6 mps 741 mmHg 93%
    12:00 -2°C° 0.4 mm 7 mps 740 mmHg 95%
    13:00 -2°C° 1 mm 6 mps 740 mmHg 96%
    14:00 -1°C° 1 mm 5 mps 739 mmHg 97%
    15:00 0°C° 0 mm 3 mps 738 mmHg 99%
    16:00 -1°C° 0.5 mm 4 mps 739 mmHg 96%
    17:00 -2°C° 0.5 mm 6 mps 739 mmHg 93%
    18:00 -2°C° 0.5 mm 7 mps 739 mmHg 89%
    19:00 -2°C° 0.3 mm 7 mps 739 mmHg 88%
    20:00 -3°C° 0.3 mm 7 mps 740 mmHg 87%
    21:00 -3°C° 0.3 mm 7 mps 740 mmHg 86%
    22:00 -4°C° 0.1 mm 7 mps 740 mmHg 86%
    23:00 -4°C° 0.1 mm 7 mps 740 mmHg 87%

    Tomorrow, 23 March, Saturday

    Time Temperature Precipitation Wind Pressure Humidity
    00:00 -6°C° 0.1 mm 7 mps 740 mmHg 88%
    01:00 -4°C° 0.1 mm 7 mps 740 mmHg 89%
    02:00 -4°C° 0.1 mm 7 mps 741 mmHg 90%
    03:00 -4°C° 0.1 mm 6 mps 741 mmHg 90%
    04:00 -4°C° 0.1 mm 6 mps 741 mmHg 91%
    05:00 -4°C° 0.1 mm 6 mps 742 mmHg 92%
    06:00 -3°C° 0.1 mm 6 mps 742 mmHg 93%
    07:00 -3°C° 0.1 mm 6 mps 743 mmHg 92%
    08:00 -3°C° 0.1 mm 6 mps 744 mmHg 91%
    09:00 -3°C° 0.1 mm 6 mps 745 mmHg 90%
    10:00 -3°C° 0 mm 6 mps 746 mmHg 89%
    11:00 -3°C° 0 mm 6 mps 747 mmHg 88%
    12:00 -3°C° 0 mm 6 mps 747 mmHg 87%
    13:00 -3°C° 0 mm 6 mps 748 mmHg 88%
    14:00 -2°C° 0 mm 5 mps 748 mmHg 88%
    15:00 -2°C° 0 mm 5 mps 748 mmHg 89%
    16:00 -2°C° 0 mm 4 mps 748 mmHg 89%
    17:00 -2°C° 0 mm 4 mps 749 mmHg 89%
    18:00 -3°C° 0 mm 4 mps 749 mmHg 89%
    19:00 -2°C° 0 mm 3 mps 749 mmHg 90%
    20:00 -4°C° 0 mm 3 mps 749 mmHg 91%
    21:00 -4°C° 0 mm 3 mps 749 mmHg 93%
    22:00 -3°C° 0 mm 2 mps 749 mmHg 93%
    23:00 -2°C° 0 mm 2 mps 749 mmHg 92%

    Day after tomorrow, 24 March, Sunday

    Time Temperature Precipitation Wind Pressure Humidity
    00:00 -2°C° 0 mm 2 mps 749 mmHg 92%
    01:00 -3°C° 0 mm 2 mps 749 mmHg 92%
    02:00 -3°C° 0 mm 2 mps 748 mmHg 92%
    03:00 -3°C° 0 mm 2 mps 748 mmHg 92%
    04:00 -4°C° 0 mm 2 mps 748 mmHg 92%
    05:00 -4°C° 0 mm 2 mps 747 mmHg 91%
    06:00 -5°C° 0 mm 2 mps 747 mmHg 91%
    07:00 -4°C° 0 mm 2 mps 747 mmHg 91%
    08:00 -4°C° 0 mm 2 mps 746 mmHg 90%
    09:00 -4°C° 0 mm 3 mps 746 mmHg 90%
    10:00 -2°C° 0 mm 3 mps 746 mmHg 91%
    11:00 -3°C° 0 mm 4 mps 745 mmHg 91%
    12:00 -2°C° 0 mm 4 mps 745 mmHg 91%
    13:00 -2°C° 0.2 mm 4 mps 744 mmHg 93%
    14:00 -2°C° 0.2 mm 4 mps 744 mmHg 94%
    15:00 -2°C° 0.2 mm 5 mps 743 mmHg 96%
    16:00 -1°C° 0.1 mm 5 mps 743 mmHg 95%
    17:00 -1°C° 0.1 mm 4 mps 743 mmHg 95%
    18:00 -1°C° 0.1 mm 4 mps 742 mmHg 94%
    19:00 -1°C° 0 mm 4 mps 743 mmHg 94%
    20:00 -2°C° 0 mm 4 mps 743 mmHg 94%
    21:00 -1°C° 0 mm 3 mps 743 mmHg 94%
    22:00 -1°C° 0 mm 3 mps 742 mmHg 93%
    23:00 -2°C° 0 mm 3 mps 742 mmHg 91%

    25 March, Monday

    Time Temperature Precipitation Wind Pressure Humidity
    00:00 -4°C° 0 mm 3 mps 742 mmHg 90%
    01:00 -4°C° 0 mm 3 mps 742 mmHg 90%
    02:00 -4°C° 0 mm 3 mps 742 mmHg 89%
    03:00 -5°C° 0 mm 3 mps 742 mmHg 88%
    04:00 -5°C° 0 mm 3 mps 742 mmHg 88%
    05:00 -5°C° 0 mm 3 mps 742 mmHg 88%
    06:00 -5°C° 0 mm 3 mps 742 mmHg 88%
    07:00 -4°C° 0 mm 2 mps 742 mmHg 87%
    08:00 -3°C° 0 mm 2 mps 742 mmHg 87%
    09:00 -2°C° 0 mm 2 mps 742 mmHg 86%
    10:00 -2°C° 0 mm 2 mps 742 mmHg 90%
    11:00 -1°C° 0 mm 3 mps 742 mmHg 93%
    12:00 0°C° 0 mm 3 mps 742 mmHg 97%
    13:00 0°C° 0 mm 3 mps 742 mmHg 97%
    14:00 0°C° 0 mm 3 mps 742 mmHg 98%
    15:00 0°C° 0 mm 3 mps 742 mmHg 99%
    16:00 0°C° 0 mm 3 mps 742 mmHg 94%
    17:00 0°C° 0 mm 3 mps 742 mmHg 90%
    18:00 -1°C° 0 mm 3 mps 742 mmHg 85%
    19:00 -1°C° 0 mm 3 mps 742 mmHg 85%
    20:00 -1°C° 0 mm 3 mps 742 mmHg 84%
    21:00 -2°C° 0 mm 3 mps 743 mmHg 83%
    22:00 -2°C° 0 mm 3 mps 743 mmHg 83%
    23:00 -2°C° 0 mm 3 mps 743 mmHg 83%

    26 March, Tuesday

    Time Temperature Precipitation Wind Pressure Humidity
    00:00 -2°C° 0 mm 2 mps 743 mmHg 83%
    01:00 -2°C° 0 mm 2 mps 743 mmHg 83%
    02:00 -3°C° 0 mm 2 mps 743 mmHg 83%
    03:00 -3°C° 0 mm 2 mps 743 mmHg 83%
    04:00 -3°C° 0 mm 2 mps 743 mmHg 83%
    05:00 -3°C° 0 mm 2 mps 743 mmHg 84%
    06:00 -3°C° 0 mm 2 mps 743 mmHg 84%
    07:00 -4°C° 0 mm 3 mps 743 mmHg 85%
    08:00 -2°C° 0 mm 3 mps 743 mmHg 85%
    09:00 -2°C° 0 mm 3 mps 743 mmHg 86%
    10:00 -1°C° 0.3 mm 3 mps 743 mmHg 90%
    11:00 -1°C° 0.3 mm 3 mps 743 mmHg 94%
    12:00 -1°C° 0.3 mm 4 mps 743 mmHg 98%
    13:00 0°C° 0.1 mm 3 mps 742 mmHg 97%
    14:00 0°C° 0.1 mm 3 mps 742 mmHg 97%
    15:00 +1°C° 0.1 mm 3 mps 742 mmHg 96%
    16:00 +1°C° 0.1 mm 3 mps 742 mmHg 92%
    17:00 0°C° 0.1 mm 3 mps 741 mmHg 89%
    18:00 0°C° 0.1 mm 3 mps 741 mmHg 85%
    19:00 -1°C° 0 mm 4 mps 741 mmHg 85%
    20:00 -1°C° 0 mm 4 mps 741 mmHg 85%
    21:00 -2°C° 0 mm 4 mps 741 mmHg 84%
    22:00 -2°C° 0.3 mm 4 mps 741 mmHg 86%
    23:00 -2°C° 0.3 mm 4 mps 741 mmHg 88%

    27 March, Wednesday

    Time Temperature Precipitation Wind Pressure Humidity
    00:00 -2°C° 0.3 mm 4 mps 741 mmHg 90%
    01:00 -2°C° 0.5 mm 4 mps 741 mmHg 90%
    02:00 -3°C° 0.5 mm 4 mps 741 mmHg 89%
    03:00 -3°C° 0.5 mm 4 mps 741 mmHg 89%
    04:00 -4°C° 0 mm 4 mps 741 mmHg 89%
    05:00 -5°C° 0 mm 4 mps 741 mmHg 89%
    06:00 -5°C° 0 mm 4 mps 741 mmHg 90%
    07:00 -5°C° 0 mm 4 mps 742 mmHg 88%
    08:00 -4°C° 0 mm 4 mps 742 mmHg 87%
    09:00 -3°C° 0 mm 4 mps 742 mmHg 86%
    10:00 -4°C° 0 mm 5 mps 743 mmHg 81%
    11:00 -2°C° 0 mm 5 mps 743 mmHg 77%
    12:00 -2°C° 0 mm 5 mps 743 mmHg 73%
    13:00 -2°C° 0 mm 6 mps 744 mmHg 71%
    14:00 -2°C° 0 mm 6 mps 744 mmHg 69%
    15:00 -2°C° 0 mm 6 mps 744 mmHg 67%
    16:00 -1°C° 0 mm 5 mps 745 mmHg 67%
    17:00 -2°C° 0 mm 5 mps 745 mmHg 67%
    18:00 -2°C° 0 mm 5 mps 746 mmHg 68%
    19:00 -2°C° 0 mm 5 mps 746 mmHg 69%
    20:00 -4°C° 0 mm 5 mps 747 mmHg 71%
    21:00 -4°C° 0 mm 5 mps 747 mmHg 73%
    22:00 -5°C° 0 mm 5 mps 747 mmHg 74%
    23:00 -5°C° 0 mm 5 mps 748 mmHg 76%
    Show more